• In Kazakhstan
  • List of Countries
  • For 7 days
  • Water Temperature
  • Weather Map
  • News
  • Weather Widgets
  • user-avatar
    Login

    Hourly Weather Leicester

    Today, 2 April, Thursday

    Time Temperature Precipitation Wind Pressure Humidity
    00:00 +3°C° 0 mm 3 mps 757 mmHg 89%
    01:00 +3°C° 0 mm 3 mps 757 mmHg 89%
    02:00 +4°C° 0 mm 3 mps 756 mmHg 89%
    03:00 +4°C° 0 mm 4 mps 756 mmHg 89%
    04:00 +4°C° 0 mm 4 mps 756 mmHg 91%
    05:00 +4°C° 0 mm 3 mps 755 mmHg 92%
    06:00 +4°C° 0 mm 4 mps 755 mmHg 94%
    07:00 +6°C° 0 mm 4 mps 755 mmHg 87%
    08:00 +7°C° 0 mm 5 mps 755 mmHg 80%
    09:00 +8°C° 0 mm 6 mps 754 mmHg 73%
    10:00 +9°C° 0.1 mm 6 mps 754 mmHg 72%
    11:00 +9°C° 0.1 mm 6 mps 754 mmHg 72%
    12:00 +10°C° 0.1 mm 6 mps 754 mmHg 71%
    13:00 +10°C° 0.1 mm 6 mps 753 mmHg 71%
    14:00 +10°C° 0.1 mm 6 mps 753 mmHg 70%
    15:00 +10°C° 0.1 mm 7 mps 753 mmHg 70%
    16:00 +9°C° 0 mm 6 mps 753 mmHg 72%
    17:00 +8°C° 0 mm 5 mps 753 mmHg 73%
    18:00 +7°C° 0 mm 5 mps 753 mmHg 75%
    19:00 +6°C° 0 mm 4 mps 753 mmHg 77%
    20:00 +4°C° 0 mm 4 mps 754 mmHg 79%
    21:00 +3°C° 0 mm 3 mps 754 mmHg 81%
    22:00 +2°C° 0 mm 3 mps 754 mmHg 83%
    23:00 +2°C° 0 mm 3 mps 755 mmHg 84%

    Tomorrow, 3 April, Friday

    Time Temperature Precipitation Wind Pressure Humidity
    00:00 +1°C° 0 mm 3 mps 755 mmHg 85%
    01:00 +1°C° 0 mm 3 mps 755 mmHg 87%
    02:00 +1°C° 0 mm 2 mps 755 mmHg 88%
    03:00 +1°C° 0 mm 2 mps 755 mmHg 89%
    04:00 +1°C° 0 mm 2 mps 755 mmHg 89%
    05:00 +1°C° 0 mm 2 mps 755 mmHg 90%
    06:00 +1°C° 0 mm 2 mps 756 mmHg 91%
    07:00 +3°C° 0 mm 2 mps 756 mmHg 83%
    08:00 +3°C° 0 mm 3 mps 756 mmHg 75%
    09:00 +5°C° 0 mm 3 mps 756 mmHg 68%
    10:00 +5°C° 0 mm 3 mps 756 mmHg 67%
    11:00 +7°C° 0 mm 3 mps 756 mmHg 67%
    12:00 +7°C° 0 mm 3 mps 756 mmHg 67%
    13:00 +7°C° 0 mm 3 mps 757 mmHg 66%
    14:00 +8°C° 0 mm 3 mps 757 mmHg 66%
    15:00 +8°C° 0 mm 3 mps 757 mmHg 66%
    16:00 +7°C° 0 mm 3 mps 757 mmHg 69%
    17:00 +7°C° 0 mm 2 mps 757 mmHg 73%
    18:00 +6°C° 0 mm 2 mps 757 mmHg 76%
    19:00 +5°C° 0 mm 2 mps 757 mmHg 80%
    20:00 +4°C° 0 mm 2 mps 757 mmHg 84%
    21:00 +3°C° 0 mm 2 mps 757 mmHg 88%
    22:00 +3°C° 0 mm 2 mps 758 mmHg 89%
    23:00 +3°C° 0 mm 2 mps 758 mmHg 90%

    Day after tomorrow, 4 April, Saturday

    Time Temperature Precipitation Wind Pressure Humidity
    00:00 +3°C° 0 mm 2 mps 758 mmHg 91%
    01:00 +2°C° 0 mm 2 mps 758 mmHg 91%
    02:00 +2°C° 0 mm 2 mps 758 mmHg 92%
    03:00 +2°C° 0 mm 2 mps 758 mmHg 92%
    04:00 +2°C° 0 mm 2 mps 758 mmHg 93%
    05:00 +2°C° 0 mm 2 mps 758 mmHg 93%
    06:00 +2°C° 0 mm 2 mps 758 mmHg 93%
    07:00 +3°C° 0 mm 3 mps 758 mmHg 87%
    08:00 +5°C° 0 mm 4 mps 758 mmHg 82%
    09:00 +7°C° 0 mm 4 mps 758 mmHg 76%
    10:00 +8°C° 0 mm 5 mps 758 mmHg 73%
    11:00 +9°C° 0 mm 5 mps 758 mmHg 71%
    12:00 +10°C° 0 mm 6 mps 758 mmHg 68%
    13:00 +10°C° 0 mm 6 mps 758 mmHg 68%
    14:00 +10°C° 0 mm 5 mps 757 mmHg 69%
    15:00 +10°C° 0 mm 5 mps 757 mmHg 69%
    16:00 +9°C° 0 mm 5 mps 757 mmHg 72%
    17:00 +10°C° 0 mm 4 mps 757 mmHg 74%
    18:00 +10°C° 0 mm 4 mps 756 mmHg 77%
    19:00 +8°C° 0 mm 4 mps 757 mmHg 81%
    20:00 +6°C° 0 mm 4 mps 757 mmHg 85%
    21:00 +5°C° 0 mm 4 mps 757 mmHg 89%
    22:00 +5°C° 0 mm 4 mps 757 mmHg 90%
    23:00 +5°C° 0 mm 4 mps 756 mmHg 90%

    5 April, Sunday

    Time Temperature Precipitation Wind Pressure Humidity
    00:00 +4°C° 0 mm 4 mps 756 mmHg 90%
    01:00 +4°C° 0 mm 4 mps 756 mmHg 88%
    02:00 +5°C° 0 mm 4 mps 755 mmHg 87%
    03:00 +5°C° 0 mm 4 mps 754 mmHg 86%
    04:00 +4°C° 0 mm 4 mps 754 mmHg 87%
    05:00 +3°C° 0 mm 5 mps 754 mmHg 87%
    06:00 +3°C° 0 mm 5 mps 753 mmHg 88%
    07:00 +6°C° 0 mm 5 mps 753 mmHg 83%
    08:00 +8°C° 0 mm 6 mps 752 mmHg 79%
    09:00 +10°C° 0 mm 7 mps 752 mmHg 75%
    10:00 +11°C° 0 mm 7 mps 751 mmHg 73%
    11:00 +13°C° 0 mm 8 mps 751 mmHg 70%
    12:00 +15°C° 0 mm 8 mps 750 mmHg 67%
    13:00 +15°C° 0 mm 8 mps 750 mmHg 69%
    14:00 +15°C° 0 mm 8 mps 749 mmHg 71%
    15:00 +15°C° 0 mm 8 mps 749 mmHg 73%
    16:00 +15°C° 0 mm 7 mps 749 mmHg 76%
    17:00 +14°C° 0 mm 7 mps 748 mmHg 80%
    18:00 +13°C° 0 mm 6 mps 748 mmHg 83%
    19:00 +12°C° 0 mm 7 mps 748 mmHg 82%
    20:00 +12°C° 0 mm 7 mps 748 mmHg 81%
    21:00 +12°C° 0 mm 8 mps 748 mmHg 80%
    22:00 +12°C° 0 mm 8 mps 747 mmHg 80%
    23:00 +11°C° 0 mm 8 mps 747 mmHg 79%

    6 April, Monday

    Time Temperature Precipitation Wind Pressure Humidity
    00:00 +11°C° 0 mm 8 mps 746 mmHg 79%
    01:00 +11°C° 0.2 mm 8 mps 746 mmHg 82%
    02:00 +11°C° 0.2 mm 8 mps 746 mmHg 86%
    03:00 +11°C° 0.2 mm 8 mps 746 mmHg 89%
    04:00 +10°C° 0.1 mm 8 mps 746 mmHg 89%
    05:00 +9°C° 0.1 mm 7 mps 747 mmHg 90%
    06:00 +9°C° 0.1 mm 6 mps 747 mmHg 90%
    07:00 +9°C° 0 mm 7 mps 747 mmHg 84%
    08:00 +10°C° 0 mm 8 mps 748 mmHg 79%
    09:00 +10°C° 0 mm 9 mps 749 mmHg 73%
    10:00 +11°C° 0.1 mm 9 mps 749 mmHg 70%
    11:00 +12°C° 0.1 mm 9 mps 750 mmHg 66%
    12:00 +12°C° 0.1 mm 9 mps 751 mmHg 63%
    13:00 +12°C° 0.1 mm 8 mps 752 mmHg 63%
    14:00 +12°C° 0.1 mm 8 mps 753 mmHg 62%
    15:00 +12°C° 0.1 mm 7 mps 754 mmHg 62%
    16:00 +11°C° 0 mm 6 mps 755 mmHg 64%
    17:00 +10°C° 0 mm 5 mps 756 mmHg 67%
    18:00 +9°C° 0 mm 5 mps 757 mmHg 69%
    19:00 +8°C° 0 mm 4 mps 758 mmHg 72%
    20:00 +7°C° 0 mm 4 mps 759 mmHg 74%
    21:00 +5°C° 0 mm 3 mps 760 mmHg 76%
    22:00 +5°C° 0 mm 3 mps 761 mmHg 80%
    23:00 +4°C° 0 mm 3 mps 762 mmHg 83%

    7 April, Tuesday

    Time Temperature Precipitation Wind Pressure Humidity
    00:00 +5°C° 0 mm 2 mps 763 mmHg 86%
    01:00 +4°C° 0 mm 2 mps 763 mmHg 87%
    02:00 +4°C° 0 mm 2 mps 763 mmHg 88%
    03:00 +4°C° 0 mm 1 mps 764 mmHg 90%
    04:00 +4°C° 0 mm 1 mps 764 mmHg 89%
    05:00 +4°C° 0 mm 1 mps 765 mmHg 89%
    06:00 +4°C° 0 mm 1 mps 765 mmHg 89%
    07:00 +5°C° 0 mm 2 mps 765 mmHg 83%
    08:00 +7°C° 0 mm 2 mps 765 mmHg 77%
    09:00 +9°C° 0 mm 3 mps 765 mmHg 71%
    10:00 +10°C° 0 mm 4 mps 765 mmHg 67%
    11:00 +11°C° 0 mm 4 mps 765 mmHg 63%
    12:00 +12°C° 0 mm 4 mps 765 mmHg 59%
    13:00 +13°C° 0 mm 4 mps 765 mmHg 60%
    14:00 +13°C° 0 mm 4 mps 765 mmHg 61%
    15:00 +14°C° 0 mm 4 mps 764 mmHg 61%
    16:00 +13°C° 0 mm 4 mps 764 mmHg 67%
    17:00 +12°C° 0 mm 4 mps 764 mmHg 72%
    18:00 +12°C° 0 mm 3 mps 763 mmHg 78%
    19:00 +10°C° 0 mm 3 mps 763 mmHg 81%
    20:00 +9°C° 0 mm 3 mps 764 mmHg 84%
    21:00 +7°C° 0 mm 3 mps 764 mmHg 88%
    22:00 +7°C° 0 mm 3 mps 764 mmHg 88%
    23:00 +6°C° 0 mm 4 mps 764 mmHg 89%
    Show more